OPS 9325

operational
NORAD ID: 2652 Int'l Des: 1967-003 Owner: AFSSD Country: US
MEOCIRCULAR

About OPS 9325

Description loading...

Live Position

Loading 3D Globe...

Upcoming Passes

Altitude History

Altitude vs Time

uPlot chart will show altitude changes over time

Two-Line Element Set

1 2652U 67003E 25312.50069984 -.00000060 00000-0 00000+0 0 9991
2 2652 7.8437 47.7762 0037153 77.7739 282.5337 1.07941838137730
Epoch: Nov 8, 2025 • Age: 47 hours

Current Status

Altitude 33656.0 km
Velocity 3.16 km/s
Sub-Earth Point 4.38°N, 127.08°W
Type other

Large Constellations

Loading constellations...